P/2015 B1 ( PanSTARRS )

Japanese version
Home page
Updated on March 21, 2016

---------------------------------------------------------------------

* Profile

Discovery Date January 19, 2015
Magnitude 19.8 mag
Discoverer Pan-STARRS 1 telescope (Haleakala)

* Orbital Elements

Epoch 2015 Sept. 15.0 TT = JDT 2457280.5
T 2015 Sept. 21.59863 TT                                MPCW
q   5.9750727            (2000.0)            P               Q
n   0.03288461     Peri.  188.41853     -0.99868797     +0.03658897
a   9.6488215      Node   353.35583     -0.00381842     -0.75089026
e   0.3807458      Incl.   18.03806     -0.05106628     -0.65941267
P  29.97
From 90 observations 2014 Nov. 30-2016 Mar. 4, mean residual 0".3.

* Finding Charts

* Magnitudes Graph

        m1 = 8.0 + 5 log d + 10.0 log r

---------------------------------------------------------------------

The orbital elements are published on M.P.E.C. 2016-E132.
The charts are made with StellaNavigator Ver.8 (AstroArts).
The magnitudes graphs are made with Comet for Windows.

---------------------------------------------------------------------

Copyright(C) Seiichi Yoshida (comet@aerith.net). All rights reserved.